Regional Weather Roundup
Issued by NWS

Home | Current Version | Previous Version | Graphics & Text | Print | Product List | Glossary On
Versions: 1 2 3 4 5 6 7 8 9 10 11 12 13 14 15 16 17 18 19 20 21 22 23 24 25 26 27 28 29 30 31 32 33 34 35 36 37 38 39 40 41 42 43 44 45 46 47 48 49 50
000
ASUS43 KMKX 040811
RWRWI

WISCONSIN REGIONAL WEATHER ROUNDUP
NATIONAL WEATHER SERVICE MILWAUKEE/SULLIVAN WI
200 AM CST SUN DEC 04 2016

NOTE: "FAIR" INDICATES FEW OR NO CLOUDS BELOW 12,000 FEET WITH NO
SIGNIFICANT WEATHER AND/OR OBSTRUCTIONS TO VISIBILITY.

WIZ001-002-006>008-014>016-023>028-040900-
NORTHWEST WISCONSIN

CITY           SKY/WX    TMP DP  RH WIND       PRES   REMARKS
SUPERIOR ARPT  LGT SNOW  29  24  79 S3        30.12S
ASHLAND        CLOUDY    29  21  72 S8        30.15F WCI  21
HAYWARD        CLOUDY    29  21  72 SE6       30.11F WCI  23
SIREN          LGT SNOW  29  26  88 SE6       30.10S WCI  23
CUMBERLAND     LGT SNOW  28  25  86 SE6       30.10F WCI  22
RICE LAKE      LGT SNOW  28  26  89 SE7       30.14S WCI  21
CHETEK         LGT SNOW  28  25  88 SE8       30.13F WCI  20
LADYSMITH      CLOUDY    29  24  80 SE5       30.15F WCI  24
EAU CLAIRE     CLOUDY    31  24  75 SE6       30.13F WCI  25
MENOMONIE      FLURRIES  31  27  84 E7        30.13F WCI  24
NEW RICHMOND   LGT SNOW  29  26  87 SE7       30.10F WCI  22
OSCEOLA        LGT SNOW  30  30 100 SE6       30.12F WCI  24
$$

WIZ003>005-009-010-017-018-040900-
NORTH CENTRAL WISCONSIN

CITY           SKY/WX    TMP DP  RH WIND       PRES   REMARKS
MANITOWISH WTR CLOUDY    26  21  81 S7        30.12F WCI  19
ARBOR VITAE    CLOUDY    29  24  79 S7        30.13S WCI  22
WOODRUFF       CLOUDY    29  24  79 S7        30.13S WCI  22
RHINELANDER    CLOUDY    28  20  71 SW8       30.15S WCI  20
EAGLE RIVER    CLOUDY    26  19  75 CALM      30.13S
LAND O LAKES   CLOUDY    27  21  79 CALM      30.14F
PHILLIPS       CLOUDY    26  22  84 SE5       30.13F WCI  20
TOMAHAWK       CLOUDY    26  21  82 CALM      30.16S
MEDFORD        CLOUDY    26  22  82 SE5       30.14F WCI  21
MERRILL        CLOUDY    27  23  82 S3        30.17F
$$

WIZ029-030-035-036-043>047-040900-
CENTRAL WISCONSIN

CITY           SKY/WX    TMP DP  RH WIND       PRES   REMARKS
WAUSAU         CLOUDY    28  21  75 S8        30.17S WCI  20
MOSINEE        CLOUDY    28  23  80 SE6       30.18F WCI  22
MARSHFIELD     CLOUDY    28  22  78 SE7       30.15F WCI  21
STEVENS POINT  CLOUDY    27  20  77 SE5       30.19F WCI  21
WAUPACA        CLOUDY    31  24  74 CALM      30.21F
WAUTOMA        CLOUDY    29  24  82 CALM      30.21F
WISC RAPIDS    CLOUDY    29  23  78 SE6       30.19F WCI  23
CAMP DOUGLAS   CLOUDY    31  26  80 SE6       30.17S WCI  25
$$

WIZ011>013-019>022-031-037>040-048>050-040900-
NORTHEAST WISCONSIN

CITY           SKY/WX    TMP DP  RH WIND       PRES   REMARKS
ANTIGO         CLOUDY    26  22  84 S6        30.17S WCI  19
SHAWANO        CLOUDY    32  24  74 CALM      30.22S
OCONTO         CLOUDY    31  22  70 SW3       30.23S
STURGEON BAY   CLOUDY    31  24  75 SW3       30.23F
GREEN BAY      CLOUDY    32  26  78 S7        30.24R WCI  26
MANITOWOC      CLOUDY    30  24  78 MISG      30.24S
APPLETON       CLOUDY    30  21  69 S3        30.20S
CLINTONVILLE   CLOUDY    30  23  74 S3        30.22S
OSHKOSH        CLOUDY    29  23  78 SE3       30.21F
$$

WIZ032>034-041-042-053>061-040900-
SOUTHWEST WISCONSIN

CITY           SKY/WX    TMP DP  RH WIND       PRES   REMARKS
LA CROSSE      LGT SNOW  33  30  88 SE5       30.16F FOG     WCI  29
SPARTA         FLURRIES  32  27  83 CALM      30.17F
VIROQUA        CLOUDY    30  30  99 SE6       30.14F WCI  24
BOSCOBEL       CLOUDY    34  30  85 CALM      30.18F
PRAIRIE DU CHI LGT SNOW  33  31  92 CALM      30.17F
PLATTEVILLE    PTCLDY    32  32 100 S7        30.18S WCI  26
$$

WIZ056-057-062-063-064-067-068-040900-
SOUTH CENTRAL WISCONSIN

CITY           SKY/WX    TMP DP  RH WIND       PRES   REMARKS
REEDSBURG      CLOUDY    31  26  81 CALM      30.18S
BARABOO/DELLS  CLOUDY    31  25  80 SE5       30.17F WCI  26
LONE ROCK      CLOUDY    32  27  81 E5        30.20S WCI  27
MINERAL POINT  FLURRIES  32  32 100 S6        30.17S WCI  26
MADISON        CLOUDY    32  26  78 S6        30.20F WCI  26
MIDDLETON      CLOUDY    33  28  79 S5        30.20S WCI  29
WATERTOWN      CLOUDY    29  27  92 SE3       30.21S
MONROE         CLOUDY    32  30  93 S7        30.18F WCI  26
JANESVILLE     CLOUDY    34  30  86 S5        30.21S WCI  30
$$

WIZ051-052-058>065-066-070>072-040900-
SOUTHEAST WISCONSIN

CITY           SKY/WX    TMP DP  RH WIND       PRES   REMARKS
MILWAUKEE      CLOUDY    30  22  72 CALM      30.22F
WAUKESHA       CLOUDY    28  23  80 S3        30.23F
MILWAUKEE/TIMM CLOUDY    30  21  69 CALM      30.24F
RACINE         CLOUDY    26  21  81 CALM      30.25F
BURLINGTON     CLOUDY    29  25  86 CALM      30.22F
KENOSHA        CLOUDY    30  24  78 E3        30.23F
FOND DU LAC    CLOUDY    30  23  75 S6        30.22F WCI  24
SHEBOYGAN      MOCLDY    29  24  82 CALM      30.23F
WEST BEND      MOCLDY    28  25  86 CALM      30.23S
JUNEAU         CLOUDY    28  25  88 SE6       30.22F WCI  22
$$

LSZ147-162-040900-
LAKE SUPERIOR

STATION/POSITION TIME  TEMP    WIND        PRES    WAVE
                       AIR SEA DIR/SP/G            HT/PER
                 (UTC) (F)     (DEG/KT/KT) (MB)    (FT/S)
DEVILS ISLAND    0700   32     200/  8/ 11 1022.1F
PORT WING        0740   29     130/  3/  7 1020.3F
SAXON HARBOR     0740   30     150/  1/  3 1021.0F
$$

LMZ867-665-643>646-040900-
LAKE MICHIGAN

STATION/POSITION TIME  TEMP    WIND        PRES    WAVE
                       AIR SEA DIR/SP/G            HT/PER
                 (UTC) (F)     (DEG/KT/KT) (MB)    (FT/S)
CHAMBERS ISLAND  0740   33     150/  3/  5 1023.0S
NORTHPORT PIER   0740   31      CALM  /  6 1023.4F
SISTER BAY       0738   32     200/ 10/ 12   N/A
ALGOMA LAKESHORE 0751          250/  5/  6   N/A
KEWAUNEE LAKESHO 0748   31     250/  5/  6 1023.3F
SHEBOYGAN LAKESH 0800   31     270/  4/  5 1024.4F
PORT WASHINGTON  0730   31     260/  3/  5 1025.1S
MILWAUKEE LAKESH 0750   32     220/  6/  7   N/A
S MID LAKE BUOY  0750   36 48  230/  2/  4 1024.3F   1
KENOSHA   LAKESH 0800   32     210/  3/  7 1023.7
$$

TC  - TEMPERATURE IN CELSIUS
VSB - VISIBILITY IN STATUTE MILES
WCI - WIND CHILL INDEX
HX  - HEAT INDEX





USA.gov is the U.S. government's official web portal to all federal, state and local government web resources and services.